Location: La Trinit�
(48.1620°N, 3.4512°W)
Time: 04:04:34
(UTC+00:00)

Cosmos 1536 - Pass Details

Date: 08 May 2021
Orbit: 539 x 558 km, 82.5° (Epoch: 13 June)

Event Time Altitude Azimuth Distance (km) Brightness Sun altitude
Rises 22:52:33 0° 347° (NNW) 2,751 7.9 -22.2°
Reaches altitude 10° 22:54:45 10° 343° (NNW) 1,848 6.6 -22.3°
Maximum altitude 22:58:45 58° 265° (W) 651 3.1 -22.6°
Enters shadow 22:58:59 57° 247° (WSW) 659 3.1 -22.6°
